Torna al catalogo

STARLINK-3370

AttivoComunicazioniVLEO
NORAD 51127·PAYLOAD·🇺🇸 United States

Lanciato Jan 19, 2022 da Cape Canaveral Space Force Station

Loading…

Prossimi Passaggi (prossime 24 ore)

TLE

AggiornatoSource: CelesTrak SupGP

Epoca: Sep 15, 2026, 01:26 UTC

1 51127C 22005Z   26258.06020833 -.00062504  00000+0 -20114-2 0  2586
2 51127  53.1565 155.1158 0001308  83.2242 209.4695 15.31710708    11

Traccia STARLINK-3370 in tempo reale con AllMySat

Download on the App Store